Regional Weather Roundup
Issued by NWS

Home | Current Version | Previous Version | Graphics & Text | Print | Product List | Glossary On
Versions: 1 2 3 4 5 6 7 8 9 10 11 12 13 14 15 16 17 18 19 20 21 22 23 24 25 26 27 28 29 30 31 32 33 34 35 36 37 38 39 40 41 42 43 44 45 46 47 48 49 50
048
ASUS43 KTOP 191959
RWRKS

WEATHER ROUNDUP FOR KANSAS
NATIONAL WEATHER SERVICE GOODLAND KS
200 PM CST FRI JAN 19 2018

NOTE:  "FAIR" INDICATES FEW OR NO CLOUDS BELOW 12,000 FEET WITH NO
SIGNIFICANT WEATHER AND/OR OBSTRUCTIONS TO VISIBILITY.

KSZ001>006-013>018-027>032-041>047-192100-
NORTHWEST KANSAS

CITY           SKY/WX    TMP DP  RH WIND       PRES   REMARKS
GOODLAND       PTSUNNY   74  16  11 W13G22    29.65F
HAYS           CLOUDY    60  18  19 S14       29.69
HILL CITY      CLOUDY    66  18  15 SW13      29.64F
RUSSELL        CLOUDY    59  21  23 S18       29.68F
$$

KSZ061>065-074>080-084>089-192100-
SOUTHWEST KANSAS

CITY           SKY/WX    TMP DP  RH WIND       PRES   REMARKS
DODGE CITY     CLOUDY    64  18  17 S21       29.72F
GARDEN CITY    CLOUDY    71   6   8 SW17      29.69F
GREAT BEND     CLOUDY    61  19  19 S20G25    29.72F
LIBERAL        CLOUDY    67  15  13 S14       29.73F
$$

KSZ066>073-081>083-090>101-192100-
SOUTHEAST KANSAS

CITY           SKY/WX    TMP DP  RH WIND       PRES   REMARKS
CHANUTE        CLOUDY    51  26  37 S15G23    29.89F
COFFEYVILLE    CLOUDY    53  25  33 S18G26    29.92F
HUTCHINSON     CLOUDY    54  22  28 S18       29.78F
MEDICINE LODGE   N/A     58  18  21 S20G28    29.78F
NEWTON         CLOUDY    52  22  30 S23       29.79F
PARSONS        CLOUDY    52  26  36 S13G26    29.91F
WICHITA INTL   CLOUDY    55  21  26 S24       29.81F
WICHITA JABRA  CLOUDY    54  21  27 S23G29    29.81F
WICHITA MCCONL CLOUDY    55  20  26 SW22G29   29.81F
WINFIELD       CLOUDY    57  22  25 S20G26    29.86F
$$

KSZ007>012-019>026-033>040-048>060-102>105-192100-
NORTHEAST KANSAS

CITY           SKY/WX    TMP DP  RH WIND       PRES   REMARKS
CONCORDIA      CLOUDY    48  27  44 S10       29.71F
EMPORIA        CLOUDY    52  24  33 S17       29.82F
LAWRENCE       CLOUDY    46  27  47 S14       29.84F
MANHATTAN      CLOUDY    54  25  32 S13       29.77F
OLATHE IND     CLOUDY    47  26  44 S15G22    29.86F
OLATHE EXE     CLOUDY    47  26  44 S16       29.85F
SALINA         CLOUDY    49  28  44 S13       29.76F
TOPEKA BILLARD CLOUDY    47  26  44 S17       29.82F
TOPEKA FORBES  CLOUDY    48  27  44 S12       29.82F
$$




USA.gov is the U.S. government's official web portal to all federal, state and local government web resources and services.